When you browse on this site, cookies collect data to enhance your experience and personalize the content and advertising you see.
Visit our Privacy Policy to learn more. By continuing to use the site, you agree to this use of cookies and data.
  • In Romania
  • List of Countries
  • For 7 days
  • Water Temperature
  • Satellite Maps
  • Weather Map
  • Weather Widgets
  • user-avatar
    Login

    Hourly Weather Baden-Baden

    Today, 25 May, Saturday

    Time Temperature Precipitation Wind Pressure Humidity
    00:00 +12°C° 0 mm 0 mps 728 mmHg 78%
    01:00 +12°C° 0 mm 0 mps 728 mmHg 83%
    02:00 +11°C° 0 mm 0 mps 728 mmHg 84%
    03:00 +11°C° 0 mm 0 mps 728 mmHg 86%
    04:00 +11°C° 0 mm 0 mps 729 mmHg 87%
    05:00 +12°C° 0 mm 0 mps 729 mmHg 84%
    06:00 +13°C° 0 mm 0 mps 729 mmHg 82%
    07:00 +15°C° 0 mm 0 mps 729 mmHg 76%
    08:00 +18°C° 0.5 mm 1 mps 729 mmHg 76%
    09:00 +19°C° 0.5 mm 1 mps 729 mmHg 75%
    10:00 +19°C° 0.5 mm 2 mps 729 mmHg 74%
    11:00 +19°C° 0.6 mm 2 mps 729 mmHg 72%
    12:00 +20°C° 0.6 mm 2 mps 729 mmHg 70%
    13:00 +20°C° 0 mm 2 mps 730 mmHg 69%
    14:00 +20°C° 1.1 mm 2 mps 730 mmHg 69%
    15:00 +20°C° 1.1 mm 2 mps 730 mmHg 69%
    16:00 +20°C° 1.1 mm 2 mps 729 mmHg 69%
    17:00 +20°C° 0.6 mm 1 mps 729 mmHg 71%
    18:00 +19°C° 0.6 mm 1 mps 729 mmHg 74%
    19:00 +18°C° 0.6 mm 1 mps 729 mmHg 76%
    20:00 +16°C° 0.3 mm 1 mps 729 mmHg 79%
    21:00 +13°C° 0.3 mm 0 mps 730 mmHg 81%
    22:00 +11°C° 0.3 mm 0 mps 730 mmHg 84%
    23:00 +12°C° 0 mm 1 mps 730 mmHg 86%

    Tomorrow, 26 May, Sunday

    Time Temperature Precipitation Wind Pressure Humidity
    00:00 +12°C° 0 mm 1 mps 730 mmHg 87%
    01:00 +11°C° 0 mm 1 mps 730 mmHg 89%
    02:00 +11°C° 0 mm 1 mps 730 mmHg 90%
    03:00 +10°C° 0 mm 1 mps 730 mmHg 91%
    04:00 +10°C° 0 mm 1 mps 730 mmHg 92%
    05:00 +11°C° 0 mm 1 mps 730 mmHg 91%
    06:00 +12°C° 0 mm 1 mps 730 mmHg 89%
    07:00 +13°C° 0 mm 1 mps 730 mmHg 87%
    08:00 +15°C° 0 mm 1 mps 730 mmHg 79%
    09:00 +17°C° 0 mm 2 mps 730 mmHg 71%
    10:00 +18°C° 0 mm 2 mps 730 mmHg 63%
    11:00 +19°C° 0 mm 2 mps 730 mmHg 59%
    12:00 +20°C° 0 mm 3 mps 730 mmHg 56%
    13:00 +21°C° 0 mm 3 mps 730 mmHg 53%
    14:00 +21°C° 0 mm 3 mps 729 mmHg 53%
    15:00 +21°C° 0 mm 3 mps 729 mmHg 53%
    16:00 +21°C° 0 mm 3 mps 729 mmHg 53%
    17:00 +20°C° 0 mm 3 mps 729 mmHg 59%
    18:00 +19°C° 0 mm 2 mps 728 mmHg 64%
    19:00 +18°C° 0 mm 2 mps 728 mmHg 70%
    20:00 +16°C° 0 mm 2 mps 728 mmHg 76%
    21:00 +15°C° 0 mm 1 mps 728 mmHg 82%
    22:00 +13°C° 0 mm 1 mps 728 mmHg 88%
    23:00 +13°C° 0 mm 1 mps 728 mmHg 90%

    Day after tomorrow, 27 May, Monday

    Time Temperature Precipitation Wind Pressure Humidity
    00:00 +13°C° 0 mm 1 mps 728 mmHg 91%
    01:00 +12°C° 0 mm 2 mps 728 mmHg 92%
    02:00 +12°C° 0 mm 2 mps 728 mmHg 93%
    03:00 +12°C° 0 mm 2 mps 727 mmHg 93%
    04:00 +10°C° 0 mm 2 mps 727 mmHg 94%
    05:00 +12°C° 0 mm 2 mps 727 mmHg 90%
    06:00 +14°C° 0 mm 2 mps 727 mmHg 87%
    07:00 +15°C° 0 mm 2 mps 727 mmHg 83%
    08:00 +16°C° 0 mm 2 mps 727 mmHg 81%
    09:00 +16°C° 0 mm 2 mps 727 mmHg 79%
    10:00 +17°C° 0 mm 2 mps 727 mmHg 76%
    11:00 +18°C° 0.2 mm 3 mps 727 mmHg 77%
    12:00 +18°C° 0.2 mm 3 mps 727 mmHg 77%
    13:00 +19°C° 0.2 mm 3 mps 726 mmHg 78%
    14:00 +19°C° 0.4 mm 3 mps 726 mmHg 78%
    15:00 +19°C° 0.4 mm 3 mps 726 mmHg 77%
    16:00 +19°C° 0.4 mm 3 mps 725 mmHg 77%
    17:00 +19°C° 0.5 mm 2 mps 725 mmHg 81%
    18:00 +18°C° 0.5 mm 2 mps 725 mmHg 85%
    19:00 +17°C° 0.5 mm 2 mps 725 mmHg 88%
    20:00 +16°C° 0.2 mm 2 mps 725 mmHg 90%
    21:00 +15°C° 0.2 mm 1 mps 725 mmHg 93%
    22:00 +14°C° 0.2 mm 1 mps 725 mmHg 95%
    23:00 +13°C° 0.1 mm 1 mps 725 mmHg 95%

    28 May, Tuesday

    Time Temperature Precipitation Wind Pressure Humidity
    00:00 +13°C° 0.1 mm 1 mps 725 mmHg 96%
    01:00 +13°C° 0.1 mm 1 mps 725 mmHg 96%
    02:00 +12°C° 0.1 mm 1 mps 725 mmHg 96%
    03:00 +12°C° 0.1 mm 1 mps 725 mmHg 96%
    04:00 +12°C° 0.1 mm 2 mps 724 mmHg 96%
    05:00 +12°C° 0 mm 2 mps 725 mmHg 95%
    06:00 +12°C° 0 mm 2 mps 725 mmHg 93%
    07:00 +11°C° 0 mm 3 mps 725 mmHg 92%
    08:00 +12°C° 0.1 mm 3 mps 725 mmHg 87%
    09:00 +12°C° 0.1 mm 3 mps 725 mmHg 83%
    10:00 +12°C° 0.1 mm 4 mps 725 mmHg 78%
    11:00 +14°C° 0 mm 4 mps 725 mmHg 68%
    12:00 +15°C° 0 mm 4 mps 725 mmHg 58%
    13:00 +17°C° 0 mm 5 mps 725 mmHg 48%
    14:00 +16°C° 0.2 mm 5 mps 725 mmHg 55%
    15:00 +15°C° 0.2 mm 5 mps 725 mmHg 62%
    16:00 +14°C° 0.2 mm 5 mps 725 mmHg 70%
    17:00 +14°C° 0.2 mm 4 mps 725 mmHg 73%
    18:00 +13°C° 0.2 mm 4 mps 725 mmHg 77%
    19:00 +12°C° 0.2 mm 3 mps 725 mmHg 80%
    20:00 +11°C° 0 mm 3 mps 726 mmHg 83%
    21:00 +10°C° 0 mm 3 mps 726 mmHg 87%
    22:00 +9°C° 0 mm 3 mps 727 mmHg 90%
    23:00 +8°C° 0 mm 3 mps 727 mmHg 91%

    29 May, Wednesday

    Time Temperature Precipitation Wind Pressure Humidity
    00:00 +8°C° 0 mm 3 mps 727 mmHg 93%
    01:00 +8°C° 0 mm 3 mps 728 mmHg 95%
    02:00 +8°C° 0 mm 3 mps 728 mmHg 95%
    03:00 +7°C° 0 mm 2 mps 728 mmHg 95%
    04:00 +7°C° 0 mm 2 mps 728 mmHg 95%
    05:00 +8°C° 0 mm 2 mps 729 mmHg 94%
    06:00 +8°C° 0 mm 2 mps 729 mmHg 92%
    07:00 +8°C° 0 mm 2 mps 729 mmHg 90%
    08:00 +9°C° 0.1 mm 3 mps 730 mmHg 88%
    09:00 +10°C° 0.1 mm 3 mps 730 mmHg 86%
    10:00 +11°C° 0.1 mm 3 mps 730 mmHg 83%
    11:00 +12°C° 0.1 mm 3 mps 730 mmHg 75%
    12:00 +14°C° 0.1 mm 3 mps 731 mmHg 67%
    13:00 +15°C° 0.1 mm 4 mps 731 mmHg 59%
    14:00 +15°C° 0.2 mm 4 mps 731 mmHg 59%
    15:00 +17°C° 0.2 mm 4 mps 731 mmHg 59%
    16:00 +17°C° 0.2 mm 3 mps 731 mmHg 59%
    17:00 +16°C° 0.2 mm 3 mps 731 mmHg 65%
    18:00 +14°C° 0.2 mm 3 mps 731 mmHg 70%
    19:00 +15°C° 0.2 mm 2 mps 732 mmHg 76%
    20:00 +13°C° 0.2 mm 2 mps 732 mmHg 80%
    21:00 +12°C° 0.2 mm 2 mps 733 mmHg 85%
    22:00 +10°C° 0.2 mm 2 mps 733 mmHg 89%
    23:00 +9°C° 0.1 mm 2 mps 734 mmHg 91%

    30 May, Thursday

    Time Temperature Precipitation Wind Pressure Humidity
    00:00 +9°C° 0.1 mm 2 mps 734 mmHg 93%
    01:00 +8°C° 0.1 mm 2 mps 734 mmHg 94%
    02:00 +8°C° 0 mm 2 mps 734 mmHg 95%
    03:00 +7°C° 0 mm 2 mps 734 mmHg 95%
    04:00 +7°C° 0 mm 2 mps 735 mmHg 95%
    05:00 +8°C° 0 mm 2 mps 735 mmHg 92%
    06:00 +9°C° 0 mm 2 mps 735 mmHg 89%
    07:00 +10°C° 0 mm 2 mps 736 mmHg 86%
    08:00 +13°C° 0 mm 2 mps 736 mmHg 77%
    09:00 +14°C° 0 mm 3 mps 736 mmHg 68%
    10:00 +16°C° 0 mm 3 mps 736 mmHg 60%
    11:00 +17°C° 0 mm 4 mps 736 mmHg 58%
    12:00 +18°C° 0 mm 4 mps 735 mmHg 57%
    13:00 +19°C° 0 mm 5 mps 735 mmHg 55%
    14:00 +19°C° 0 mm 5 mps 735 mmHg 55%
    15:00 +19°C° 0 mm 5 mps 735 mmHg 54%
    16:00 +20°C° 0 mm 5 mps 735 mmHg 54%
    17:00 +19°C° 0.1 mm 4 mps 735 mmHg 61%
    18:00 +18°C° 0.1 mm 4 mps 735 mmHg 67%
    19:00 +17°C° 0.1 mm 3 mps 735 mmHg 74%
    20:00 +16°C° 0 mm 3 mps 735 mmHg 78%
    21:00 +14°C° 0 mm 3 mps 736 mmHg 81%
    22:00 +12°C° 0 mm 3 mps 736 mmHg 85%
    23:00 +13°C° 0.2 mm 3 mps 736 mmHg 87%
    Show more